FENGYUN1
1 25730U 99025A   10279.42776622  .00000881  00000-0  53923-3 0 01542
2 25730 098.7952 241.5299 0021718 314.5551 045.3828 14.08316718587340
OKEAN-0
1 25860U 99039A   10279.83950776  .00000099  00000-0  22584-4 0 01192
2 25860 097.8476 248.8305 0001932 079.6070 280.5354 14.73668268603342
NOAA-16
1 26536U 00055A   10279.50336783 -.00000216  00000-0 -91526-4 0 00254
2 26536 099.1681 299.5793 0010937 029.1804 330.9980 14.12577638517544
NOAA-17
1 27453U 02032A   10279.70300815  .00000044  00000-0  37004-4 0 00178
2 27453 098.4197 325.5865 0011875 166.6127 193.5358 14.24195986430578
NOAA-18
1 28654U 05018A   10279.67167683  .00000009  00000-0  29547-4 0 05066
2 28654 098.9607 225.6680 0015235 098.3552 261.9320 14.11395107277161
NOAA-19
1 33591U 09005A   10279.68398628  .00000248  00000-0  16158-3 0 07024
2 33591 098.7966 219.4751 0013783 337.4668 022.5891 14.11090298085630
HUBBLE
1 20580U 90037B   10280.01802476  .00000622  00000-0  34684-4 0  6562
2 20580 028.4697 229.7651 0003357 305.1190 054.9084 15.01054729921570
ISS
1 25544U 98067A   10280.80575351  .00017987  00000-0  14026-3 0   309
2 25544 051.6478 014.4306 0007682 071.6451 020.7177 15.71746973681186
CO-58
1 28895U 05043F   10280.65753610  .00000267  00000-0  65084-4 0  6986
2 28895 097.9962 161.3047 0016528 293.4161 066.5312 14.59942954263394
FALCON
1 30776U 07006E   10280.81890400  .00000815  00000-0  61037-4 0  9318
2 30776 035.4325 080.3932 0001068 011.5532 348.5209 15.03857278197020
MAST
1 31126U 07012K   10279.66590591  .00000141  00000-0  42342-4 0 09820
2 31126 097.9264 315.8510 0093503 239.6232 119.5702 14.53626024184250
CAPE1
1 31130U 07012P   10279.54940758  .00000260  00000-0  70700-4 0 00008
2 31130 097.9283 312.9342 0101137 248.7472 110.2952 14.52230498183829
COMPASS
1 32787U 08021E   10279.78017291  .00000191  00000-0  30791-4 0 07973
2 32787 097.8832 342.9381 0014705 284.3628 075.5929 14.81986727132024
AAUSAT2
1 32788U 08021F   10280.17730451  .00000467  00000-0  65294-4 0  7869
2 32788 097.8851 343.4836 0014078 284.2014 075.7606 14.82138418132096
DO-64
1 32789U 08021G   10279.76821305  .00000855  00000-0  11333-3 0 08059
2 32789 097.8915 343.6863 0014478 282.4344 077.5202 14.82342208132030
CO-66
1 32791U 08021J   10279.75144112  .00000709  00000-0  96518-4 0 07916
2 32791 097.8850 342.9094 0015042 283.2204 076.7376 14.81755928131972
RS-30
1 32953U 08025A   10280.65330176  .00000010  00000-0  00000 0 0  1092
2 32953 082.5038 319.7536 0017932 213.8295 146.1643 12.43008114107711
TACSAT-3
1 35001U 09028A   10279.41730726  .00005877  00000-0  13470-3 0 04054
2 35001 040.4564 265.4409 0020343 119.0113 241.2743 15.42957560077812
PHARMSAT
1 35002U 09028B   10279.33720443  .00005065  00000-0  11515-3 0 03811
2 35002 040.4693 263.5854 0022749 120.6450 239.6611 15.43352380077829
HAWKSAT1
1 35003U 09028C   10279.30797796  .00011887  00000-0  22660-3 0  4064
2 35003 040.4580 254.7942 0021182 142.4592 217.7713 15.47690610 77920
CP6
1 35004U 09028D   10279.29515691  .00014656  00000-0  26565-3 0 04082
2 35004 040.4628 252.9008 0020964 149.3151 210.8898 15.49006585077934
AEROCUB3
1 35005U 09028E   10279.29972649  .00066917  00000-0  75600-3 0 04781
2 35005 040.4757 242.4799 0022220 177.5544 182.5390 15.61189019078059
CASTOR
1 35694U 09038F   10230.44082147  .07179566  12689-4  99310-4 0  6559
2 35694 051.5930 222.0149 0004218 308.0851 053.0105 16.48877011 61107
METEOR-M
1 35865U 09049A   10280.72888714  .00000176  00000-0  10000-3 0  7193
2 35865 098.7439 333.6497 0003224 050.3903 309.7549 14.21830229 54711
RS-38
1 35869U 09049E   10280.75843845  .00000177  00000-0  10000-3 0  7333
2 35869 098.7439 333.7171 0005443 043.3578 316.8015 14.21990088 54728
